Location: Newark
(34.6283°N, 36.0776°E)
Time: 07:58:27
(UTC+00:00)

Tiros 1 despin weight - Pass Details

Date: 22 September 2019
Orbit: 593 x 643 km, 48.2° (Epoch: 22 October)

Event Time Altitude Azimuth Distance (km) Brightness Sun altitude
Rises 12:58:13 0° 311° (NW) 2,859 ? 30.3°
Reaches altitude 10° 13:01:16 10° 332° (NNW) 1,945 ? 29.7°
Maximum altitude 13:04:09 17° 13° (NNE) 1,550 ? 29.2°
Drops below altitude 10° 13:07:01 10° 53° (NE) 1,930 ? 28.6°
Sets 13:10:01 0° 74° (ENE) 2,826 ? 28.1°
